Cloud_Cover
95 43 40 22 69 10 1 34 66 69 7 5 5 0 0 1 2 1 1 4 5 0 0 0 0 0 2 83 21 12 1 98 100 100 100 100 100 100
95 68 18 4 71 100 100 97 100 100 100 0 0 0 0 0 0 0 0 0 0 0 0 0 0 0 26 68 100 73 78 44 92 100 100 100 100 100
92 100 100 88 68 100 100 100 100 100 100 78 25 0 0 0 0 0 0 0 0 0 0 0 0 0 0 0 100 100 100 52 100 100 100 100 100 100
89 10 65 96 100 100 100 100 100 100 100 100 100 100 99 99 81 0 0 0 1 0 0 0 0 0 0 0 100 100 100 100 100 100 100 100 100 100
25 75 100 62 98 100 100 100 100 100 100 100 100 100 100 100 100 20 1 0 2 1 1 1 0 1 4 27 100 100 100 100 100 100 100 92 100 100
98 100 100 100 100 100 100 100 100 100 100 100 100 100 100 100 100 100 83 11 0 5 36 98 68 100 54 100 100 100 100 100 100 100 100 100 100 100
90 86 100 100 100 100 100 100 100 100 100 100 100 100 100 100 100 100 100 91 1 4 88 60 100 100 100 100 100 100 100 100 100 100 100 100 100 100
100 99 100 100 100 100 100 100 100 100 100 100 100 100 100 100 100 100 100 100 100 100 100 61 100 100 100 100 100 100 100 100 100 100 100 100 100 100
100 100 100 100 100 100 100 92 100 100 100 100 100 100 100 100 100 100 100 100 100 100 100 98 84 99 100 100 100 100 100 100 100 100 100 100 100 100
100 100 100 100 100 100 100 100 100 100 100 100 100 100 100 100 100 100 100 100 100 100 100 100 100 100 100 100 100 100 100 100 100 100 100 100 100 100
100 100 100 100 100 100 100 100 100 100 100 100 100 100 100 100 100 100 100 100 100 88 100 100 100 100 100 100 100 100 100 100 100 100 100 100 100 100
100 100 100 100 100 100 100 72 100 100 94 77 99 100 100 100 100 100 100 100 100 100 100 100 100 100 100 100 100 100 100 100 100 100 100 100 100 80
92 100 99 58 45 74 83 99 100 100 99 100 100 98 100 100 100 100 100 100 100 100 100 100 100 100 100 100 100 100 100 100 100 100 100 100 100 100
4 4 5 7 31 63 89 100 100 100 100 100 100 100 100 100 93 100 100 100 100 100 100 100 100 100 100 100 100 100 100 100 100 100 100 100 100 100
5 5 5 24 22 18 6 44 100 100 100 99 100 100 100 100 100 100 100 100 100 100 100 100 100 100 100 100 100 100 100 100 100 100 100 100 100 100
5 5 5 5 11 5 5 5 25 98 100 100 100 100 100 100 100 100 100 100 100 100 100 89 100 100 100 100 99 94 100 100 100 100 100 100 100 100
5 5 5 5 5 5 5 6 5 5 58 100 100 100 100 100 100 100 100 100 100 100 100 100 100 100 100 98 100 80 83 100 100 99 95 100 100 100
9 6 5 5 5 5 5 5 5 5 5 33 100 100 100 100 100 100 100 100 100 100 100 100 100 100 88 86 96 94 90 100 94 90 100 100 81 95
44 9 5 5 5 5 12 34 43 5 6 18 88 100 100 100 100 100 100 100 100 100 100 100 100 100 100 100 100 100 74 70 62 100 100 92 24 100
100 57 24 5 5 5 27 79 83 74 71 65 100 78 83 100 100 100 100 100 100 100 100 100 100 100 100 100 100 100 100 91 97 100 97 90 67 100
100 98 93 6 67 64 72 81 88 79 98 100 91 87 88 94 100 100 100 100 100 100 100 100 100 100 100 100 100 100 100 100 96 96 78 100 96 61
100 100 100 75 79 79 78 98 95 100 100 100 100 100 81 79 88 80 85 100 100 100 100 100 100 100 94 100 100 100 100 100 93 12 6 12 35 5
100 99 99 100 74 73 75 95 95 90 99 91 100 100 99 98 92 100 88 100 100 100 100 100 100 100 100 100 100 100 100 100 100 100 80 10 38 86